📊 Raw Sensor Data
Showing records 44426 to 44450 of 85,036 total
| ID | Distance (ft) | Battery V | Battery A | Int Temp (°F) | Int Humid (%) | Ext Temp (°F) | Solar V | RSSI | SNR | Time Stamp |
|---|---|---|---|---|---|---|---|---|---|---|
| 40623 | 15.9 | 3.96 | -5 | 54 | 43 | 56 | 0.00 | -70 | 8 | 05/15/2025 12:15 AM |
| 40622 | 15.9 | 3.89 | -5 | 55 | 43 | 57 | 0.00 | -70 | 8 | 05/15/2025 12:00 AM |
| 40621 | 15.9 | 3.90 | -5 | 55 | 43 | 57 | 0.00 | -71 | 8 | 05/14/2025 11:45 PM |
| 40620 | 15.8 | 3.89 | -5 | 56 | 43 | 57 | 0.10 | -68 | 8 | 05/14/2025 11:30 PM |
| 40619 | 15.8 | 3.89 | -5 | 57 | 43 | 58 | 0.00 | -70 | 8 | 05/14/2025 11:15 PM |
| 40618 | 15.8 | 3.96 | -5 | 57 | 43 | 59 | 0.00 | -69 | 7 | 05/14/2025 11:00 PM |
| 40617 | 15.8 | 3.89 | -5 | 58 | 44 | 59 | 0.00 | -69 | 7 | 05/14/2025 10:45 PM |
| 40616 | 15.8 | 3.89 | -5 | 58 | 44 | 59 | 0.00 | -70 | 8 | 05/14/2025 10:30 PM |
| 40615 | 15.8 | 3.89 | -5 | 59 | 44 | 60 | 0.00 | -69 | 7 | 05/14/2025 10:15 PM |
| 40614 | 15.8 | 3.89 | -5 | 60 | 45 | 61 | 0.10 | -68 | 7 | 05/14/2025 10:00 PM |
| 40613 | 15.8 | 3.89 | -5 | 60 | 45 | 61 | 0.00 | -69 | 6 | 05/14/2025 09:45 PM |
| 40612 | 15.8 | 3.90 | -5 | 61 | 46 | 62 | 0.00 | -70 | 8 | 05/14/2025 09:30 PM |
| 40611 | 15.8 | 3.89 | -5 | 62 | 46 | 63 | 0.10 | -68 | 8 | 05/14/2025 09:15 PM |
| 40610 | 15.8 | 3.90 | -5 | 63 | 47 | 63 | 0.10 | -68 | 7 | 05/14/2025 09:00 PM |
| 40609 | 15.1 | 3.90 | -5 | 64 | 48 | 64 | 0.10 | -67 | 8 | 05/14/2025 08:45 PM |
| 40608 | 15.7 | 3.90 | -5 | 65 | 49 | 65 | 0.20 | -69 | 7 | 05/14/2025 08:30 PM |
| 40607 | 15.8 | 3.90 | -9 | 67 | 50 | 66 | 1.60 | -68 | 8 | 05/14/2025 08:15 PM |
| 40606 | 15.7 | 3.97 | 0 | 70 | 50 | 67 | 4.50 | -69 | 8 | 05/14/2025 08:00 PM |
| 40605 | 15.8 | 3.92 | 0 | 74 | 48 | 69 | 4.50 | -68 | 8 | 05/14/2025 07:45 PM |
| 40604 | 15.8 | 4.00 | 8 | 77 | 47 | 71 | 4.50 | -70 | 8 | 05/14/2025 07:30 PM |
| 40603 | 15.7 | 4.02 | 7 | 79 | 45 | 73 | 4.50 | -68 | 8 | 05/14/2025 07:15 PM |
| 40602 | 15.7 | 4.02 | 15 | 78 | 45 | 74 | 4.50 | -68 | 8 | 05/14/2025 07:00 PM |
| 40601 | 15.6 | 3.99 | 0 | 77 | 47 | 73 | 5.10 | -70 | 8 | 05/14/2025 06:45 PM |
| 40600 | 15.6 | 3.96 | 0 | 77 | 49 | 72 | 5.10 | -70 | 7 | 05/14/2025 06:30 PM |
| 40599 | 15.7 | 3.96 | 0 | 79 | 50 | 74 | 5.10 | -68 | 8 | 05/14/2025 06:15 PM |